Meteo orario Abeche

Oggi, 19 Giugno, Sabato

Tempo Temperatura Precipitazioni Vento Pressione Umidità
00:00 +29°C° 0 mm 5 m/s 712 mm Hg 55%
01:00 +30°C° 0 mm 4 m/s 711 mm Hg 49%
02:00 +30°C° 0 mm 3 m/s 712 mm Hg 48%
03:00 +30°C° 0 mm 3 m/s 712 mm Hg 48%
04:00 +30°C° 0 mm 3 m/s 712 mm Hg 47%
05:00 +30°C° 0 mm 3 m/s 712 mm Hg 47%
06:00 +31°C° 0 mm 3 m/s 713 mm Hg 47%
07:00 +31°C° 0 mm 3 m/s 713 mm Hg 48%
08:00 +33°C° 0 mm 4 m/s 713 mm Hg 44%
09:00 +34°C° 0 mm 4 m/s 713 mm Hg 40%
10:00 +36°C° 0 mm 4 m/s 713 mm Hg 36%
11:00 +37°C° 0 mm 4 m/s 713 mm Hg 33%
12:00 +38°C° 0 mm 3 m/s 713 mm Hg 30%
13:00 +39°C° 0 mm 3 m/s 712 mm Hg 26%
14:00 +39°C° 0 mm 3 m/s 712 mm Hg 25%
15:00 +39°C° 0 mm 3 m/s 711 mm Hg 25%
16:00 +41°C° 0 mm 4 m/s 710 mm Hg 24%
17:00 +37°C° 0.2 mm 4 m/s 711 mm Hg 30%
18:00 +34°C° 0.2 mm 5 m/s 711 mm Hg 37%
19:00 +32°C° 0.2 mm 5 m/s 711 mm Hg 43%
20:00 +32°C° 0.3 mm 5 m/s 712 mm Hg 44%
21:00 +32°C° 0.3 mm 5 m/s 712 mm Hg 45%
22:00 +32°C° 0.3 mm 4 m/s 712 mm Hg 45%
23:00 +30°C° 0 mm 4 m/s 712 mm Hg 46%

Domani, 20 Giugno, Domenica

Tempo Temperatura Precipitazioni Vento Pressione Umidità
00:00 +30°C° 0 mm 4 m/s 712 mm Hg 46%
01:00 +30°C° 0 mm 4 m/s 712 mm Hg 47%
02:00 +30°C° 0 mm 4 m/s 712 mm Hg 49%
03:00 +29°C° 0 mm 3 m/s 712 mm Hg 51%
04:00 +29°C° 0 mm 3 m/s 712 mm Hg 53%
05:00 +29°C° 0 mm 3 m/s 712 mm Hg 52%
06:00 +30°C° 0 mm 3 m/s 712 mm Hg 51%
07:00 +30°C° 0 mm 3 m/s 713 mm Hg 51%
08:00 +33°C° 0 mm 3 m/s 713 mm Hg 45%
09:00 +35°C° 0 mm 3 m/s 713 mm Hg 39%
10:00 +37°C° 0 mm 3 m/s 714 mm Hg 33%
11:00 +38°C° 0 mm 2 m/s 713 mm Hg 30%
12:00 +39°C° 0 mm 2 m/s 712 mm Hg 27%
13:00 +40°C° 0 mm 2 m/s 712 mm Hg 24%
14:00 +40°C° 0.1 mm 2 m/s 711 mm Hg 23%
15:00 +40°C° 0.1 mm 2 m/s 710 mm Hg 22%
16:00 +40°C° 0.1 mm 2 m/s 710 mm Hg 22%
17:00 +38°C° 0.1 mm 3 m/s 710 mm Hg 25%
18:00 +37°C° 0.1 mm 3 m/s 710 mm Hg 27%
19:00 +36°C° 0.1 mm 4 m/s 710 mm Hg 30%
20:00 +36°C° 0 mm 3 m/s 710 mm Hg 30%
21:00 +36°C° 0 mm 2 m/s 710 mm Hg 30%
22:00 +35°C° 0 mm 1 m/s 710 mm Hg 29%
23:00 +35°C° 0 mm 2 m/s 710 mm Hg 32%

Dopodomani, 21 Giugno, Lunedi

Tempo Temperatura Precipitazioni Vento Pressione Umidità
00:00 +34°C° 0 mm 3 m/s 710 mm Hg 34%
01:00 +34°C° 0 mm 4 m/s 710 mm Hg 36%
02:00 +33°C° 0 mm 4 m/s 710 mm Hg 39%
03:00 +31°C° 0 mm 3 m/s 710 mm Hg 41%
04:00 +30°C° 0 mm 2 m/s 710 mm Hg 43%
05:00 +31°C° 0 mm 2 m/s 711 mm Hg 42%
06:00 +33°C° 0 mm 3 m/s 711 mm Hg 40%
07:00 +33°C° 0 mm 4 m/s 712 mm Hg 39%
08:00 +35°C° 0 mm 4 m/s 712 mm Hg 35%
09:00 +36°C° 0 mm 4 m/s 712 mm Hg 32%
10:00 +38°C° 0 mm 4 m/s 712 mm Hg 29%
11:00 +40°C° 0 mm 4 m/s 712 mm Hg 27%
12:00 +39°C° 0 mm 3 m/s 711 mm Hg 25%
13:00 +40°C° 0 mm 3 m/s 711 mm Hg 23%
14:00 +40°C° 0 mm 3 m/s 710 mm Hg 21%
15:00 +41°C° 0 mm 2 m/s 710 mm Hg 20%
16:00 +41°C° 0 mm 2 m/s 709 mm Hg 18%
17:00 +39°C° 0 mm 3 m/s 709 mm Hg 21%
18:00 +38°C° 0 mm 3 m/s 709 mm Hg 23%
19:00 +36°C° 0 mm 4 m/s 709 mm Hg 26%
20:00 +36°C° 0 mm 4 m/s 709 mm Hg 25%
21:00 +36°C° 0 mm 4 m/s 709 mm Hg 25%
22:00 +36°C° 0 mm 3 m/s 709 mm Hg 25%
23:00 +35°C° 0 mm 3 m/s 709 mm Hg 27%

22 Giugno, Martedi

Tempo Temperatura Precipitazioni Vento Pressione Umidità
00:00 +34°C° 0 mm 3 m/s 709 mm Hg 29%
01:00 +33°C° 0 mm 4 m/s 709 mm Hg 32%
02:00 +33°C° 0 mm 3 m/s 709 mm Hg 36%
03:00 +31°C° 0 mm 3 m/s 709 mm Hg 39%
04:00 +31°C° 0 mm 3 m/s 709 mm Hg 43%
05:00 +32°C° 0 mm 4 m/s 710 mm Hg 43%
06:00 +32°C° 0 mm 4 m/s 711 mm Hg 43%
07:00 +33°C° 0 mm 5 m/s 711 mm Hg 43%
08:00 +34°C° 0 mm 4 m/s 712 mm Hg 40%
09:00 +35°C° 0 mm 4 m/s 712 mm Hg 36%
10:00 +37°C° 0 mm 4 m/s 712 mm Hg 32%
11:00 +38°C° 0 mm 3 m/s 711 mm Hg 30%
12:00 +39°C° 0 mm 3 m/s 711 mm Hg 27%
13:00 +40°C° 0 mm 3 m/s 710 mm Hg 24%
14:00 +40°C° 0 mm 3 m/s 710 mm Hg 23%
15:00 +40°C° 0 mm 2 m/s 709 mm Hg 21%
16:00 +40°C° 0 mm 2 m/s 709 mm Hg 19%
17:00 +39°C° 0 mm 3 m/s 709 mm Hg 21%
18:00 +37°C° 0 mm 3 m/s 709 mm Hg 24%
19:00 +36°C° 0 mm 4 m/s 709 mm Hg 26%
20:00 +35°C° 0 mm 5 m/s 709 mm Hg 29%
21:00 +35°C° 0 mm 5 m/s 710 mm Hg 33%
22:00 +34°C° 0 mm 5 m/s 710 mm Hg 36%
23:00 +33°C° 0 mm 6 m/s 710 mm Hg 39%

23 Giugno, Mercoledi

Tempo Temperatura Precipitazioni Vento Pressione Umidità
00:00 +32°C° 0 mm 6 m/s 710 mm Hg 42%
01:00 +30°C° 0 mm 7 m/s 711 mm Hg 44%
02:00 +30°C° 0 mm 6 m/s 711 mm Hg 48%
03:00 +29°C° 0 mm 5 m/s 711 mm Hg 51%
04:00 +28°C° 0 mm 4 m/s 711 mm Hg 55%
05:00 +29°C° 0 mm 3 m/s 711 mm Hg 53%
06:00 +29°C° 0 mm 3 m/s 711 mm Hg 52%
07:00 +30°C° 0 mm 2 m/s 711 mm Hg 51%
08:00 +31°C° 0 mm 3 m/s 712 mm Hg 45%
09:00 +34°C° 0 mm 3 m/s 712 mm Hg 39%
10:00 +36°C° 0 mm 3 m/s 712 mm Hg 33%
11:00 +37°C° 0 mm 3 m/s 712 mm Hg 31%
12:00 +38°C° 0 mm 3 m/s 711 mm Hg 28%
13:00 +39°C° 0 mm 3 m/s 711 mm Hg 25%
14:00 +39°C° 0 mm 3 m/s 710 mm Hg 25%
15:00 +39°C° 0 mm 3 m/s 710 mm Hg 24%
16:00 +39°C° 0 mm 3 m/s 709 mm Hg 23%
17:00 +36°C° 1.9 mm 5 m/s 710 mm Hg 39%
18:00 +32°C° 1.9 mm 7 m/s 711 mm Hg 54%
19:00 +27°C° 1.9 mm 9 m/s 712 mm Hg 70%
20:00 +28°C° 0.5 mm 7 m/s 712 mm Hg 61%
21:00 +29°C° 0.5 mm 5 m/s 711 mm Hg 53%
22:00 +30°C° 0.5 mm 4 m/s 711 mm Hg 44%
23:00 +30°C° 0 mm 3 m/s 711 mm Hg 45%

24 Giugno, Giovedi

Tempo Temperatura Precipitazioni Vento Pressione Umidità
00:00 +30°C° 0 mm 3 m/s 711 mm Hg 45%
01:00 +30°C° 0 mm 2 m/s 711 mm Hg 45%
02:00 +30°C° 0 mm 2 m/s 711 mm Hg 46%
03:00 +30°C° 0 mm 3 m/s 711 mm Hg 47%
04:00 +29°C° 0 mm 3 m/s 711 mm Hg 48%
05:00 +29°C° 0 mm 3 m/s 712 mm Hg 48%
06:00 +30°C° 0 mm 2 m/s 712 mm Hg 47%
07:00 +30°C° 0 mm 2 m/s 712 mm Hg 46%
08:00 +31°C° 0 mm 2 m/s 712 mm Hg 43%
09:00 +33°C° 0 mm 3 m/s 713 mm Hg 40%
10:00 +35°C° 0 mm 3 m/s 713 mm Hg 36%
11:00 +36°C° 0 mm 3 m/s 713 mm Hg 34%
12:00 +37°C° 0 mm 2 m/s 712 mm Hg 31%
13:00 +38°C° 0 mm 2 m/s 712 mm Hg 29%
14:00 +37°C° 0.1 mm 2 m/s 711 mm Hg 30%
15:00 +37°C° 0.1 mm 3 m/s 711 mm Hg 32%
16:00 +37°C° 0.1 mm 4 m/s 710 mm Hg 33%
17:00 +35°C° 0.6 mm 4 m/s 711 mm Hg 37%
18:00 +34°C° 0.6 mm 5 m/s 711 mm Hg 41%
19:00 +32°C° 0.6 mm 6 m/s 711 mm Hg 44%
20:00 +32°C° 0 mm 5 m/s 711 mm Hg 46%
21:00 +30°C° 0 mm 5 m/s 711 mm Hg 47%
22:00 +30°C° 0 mm 5 m/s 711 mm Hg 48%
23:00 +29°C° 0 mm 4 m/s 711 mm Hg 51%
Mostrare altro

Abbiamo bisogno del tuo consenso

Meteoprog e i nostri fornitori di servizi possono memorizzare e accedere a dati personali come cookie, identificatori di dispositivi o altre tecnologie simili sul tuo dispositivo e possono elaborare tali dati per personalizzare i contenuti e gli annunci, nonché fornire funzionalità dei social media e analizzarne il traffico.

  • Archiviare e/o accedere alle informazioni sul tuo dispositivo

    Cookie, identificatori di dispositivi o altre informazioni possono essere memorizzati o resi accessibili sul tuo dispositivo per le finalità sopra indicate.

  • Annunci e contenuti personalizzati, misurazione di annunci e contenuti, approfondimenti sul pubblico e sviluppo di prodotti

    Gli annunci e i contenuti possono essere personalizzati in base a un profilo. È possibile aggiungere più dati per personalizzare meglio annunci e contenuti. È possibile misurare il rendimento degli annunci e dei contenuti. È possibile ricavare informazioni sul pubblico che ha visto gli annunci e i contenuti. Tali dati possono essere utilizzati per sviluppare o migliorare l'esperienza, i sistemi e il software dell'utente.

Cliccando su “Accetto”, acconsenti all'uso di cookie, identificatori di dispositivo, web beacon o altre tecnologie simili. Puoi modificare le impostazioni nel browser del tuo dispositivo.

Per determinati scopi, è possibile fare affidamento su interessi legali, piuttosto che sul consenso. Puoi approfondire questo argomento consultando la nostra Informativa sulla privacy e sui cookie.